Hoquiam, WA

5:16 PM PST on February 07, 2016 (GMT -0800)
Bowerman

Weather History for KHQM - October, 2011

Change the Weather History Date:

Monday, October 10, 2011

  Actual Average Record
Temperature  
Mean Temperature 56 °F 54 °F  
Max Temperature 61 °F 61 °F 76 °F (1991)
Min Temperature 51 °F 46 °F 31 °F (2008)
Degree Days  
Heating Degree Days 10 11  
Month to date heating degree days 102  
Cooling Degree Days 0 0  
Month to date cooling degree days 0  
Year to date cooling degree days 23  
Growing Degree Days 6 (Base 50)    
Moisture  
Dew Point 53 °F    
Average Humidity 93    
Maximum Humidity 100    
Minimum Humidity 77    
Precipitation  
Precipitation 0.40 in 0.18 in 2.59 in (1995)
Month to date precipitation 1.43  
Year to date precipitation 41.32  
Sea Level Pressure  
Sea Level Pressure 29.58 in    
Wind  
Wind Speed 10 mph (ESE)    
Max Wind Speed 25 mph    
Max Gust Speed 33 mph    
Visibility 7 miles    
Events Rain    
T = Trace of Precipitation, MM = Missing Value Source: NWS Daily Summary

Daily Weather History Graph

Daily Weather History Graph

Search for Another Location

Airport or City:

Trip Planner

Search our weather history database for the weather conditions in past years. The results will help you decide how hot, cold, wet, or windy it might be!

Date:

Astronomy

Oct. 10, 2011 Rise Set
Actual Time 7:26 AM PDT 6:38 PM PDT
Civil Twilight 6:56 AM PDT 7:08 PM PDT
Nautical Twilight 6:20 AM PDT 7:43 PM PDT
Astronomical Twilight 5:45 AM PDT 8:19 PM PDT
Moon 5:44 PM PDT (10/10) 6:12 AM PDT (10/10)
Length of Visible Light 12h 12m
Length of Day
11h 11m
Waxing Gibbous, 98% of the Moon is Illuminated
Oct 10
Waxing Gibbous
Oct 11
Full
Oct 19
Last Quarter
Oct 26
New
Nov 2
First Quarter

Hourly Weather History & Observations

Time (PDT) Temp. Dew Point Humidity Pressure Visibility Wind Dir Wind Speed Gust Speed Precip Events Conditions
12:53 AM 53.1 °F 51.1 °F 93% 29.77 in 10.0 mi ENE 10.4 mph - 0.00 in   Overcast
1:53 AM 53.1 °F 51.1 °F 93% 29.75 in 10.0 mi East 12.7 mph - N/A   Overcast
2:40 AM 53.6 °F 51.8 °F 94% 29.72 in 9.0 mi NE 9.2 mph - 0.00 in   Overcast
2:53 AM 54.0 °F 51.1 °F 90% 29.73 in 10.0 mi NE 4.6 mph - 0.00 in   Overcast
3:42 AM 53.6 °F 51.8 °F 94% 29.69 in 10.0 mi East 9.2 mph - N/A   Overcast
3:53 AM 53.1 °F 51.1 °F 93% 29.70 in 10.0 mi East 9.2 mph - 0.00 in Rain Light Rain
4:53 AM 53.1 °F 51.1 °F 93% 29.67 in 10.0 mi ENE 8.1 mph - 0.00 in   Overcast
5:53 AM 55.4 °F 48.2 °F 77% 29.63 in 10.0 mi East 8.1 mph - N/A   Overcast
6:18 AM 53.6 °F 50.0 °F 88% 29.62 in 2.5 mi SE 6.9 mph - 0.02 in Rain Light Rain
6:31 AM 53.6 °F 51.8 °F 94% 29.61 in 3.0 mi East 5.8 mph - 0.03 in Rain Light Rain
6:53 AM 52.0 °F 51.1 °F 97% 29.60 in 3.0 mi NE 4.6 mph - 0.06 in Rain Light Rain
7:11 AM 51.8 °F 51.8 °F 100% 29.58 in 5.0 mi NNE 4.6 mph - 0.00 in Rain Light Rain
7:27 AM 51.8 °F 51.8 °F 100% 29.58 in 4.0 mi North 3.5 mph - 0.01 in Rain Light Rain
7:40 AM 51.8 °F 51.8 °F 100% 29.58 in 2.5 mi NNE 4.6 mph - 0.05 in Rain Rain
7:53 AM 52.0 °F 51.1 °F 97% 29.58 in 2.0 mi ESE 4.6 mph - 0.10 in Rain Heavy Rain
7:58 AM 51.8 °F 51.8 °F 100% 29.56 in 2.5 mi ENE 6.9 mph - 0.01 in Rain Light Rain
8:16 AM 53.6 °F 51.8 °F 94% 29.54 in 3.0 mi NE 10.4 mph - 0.03 in Rain Light Rain
8:24 AM 53.6 °F 51.8 °F 94% 29.54 in 8.0 mi ENE 9.2 mph - 0.03 in Rain Light Rain
8:44 AM 53.6 °F 51.8 °F 94% 29.53 in 4.0 mi ENE 9.2 mph - 0.03 in   Overcast
8:53 AM 53.1 °F 52.0 °F 96% 29.54 in 2.5 mi ENE 10.4 mph - 0.03 in Rain Light Rain
9:08 AM 53.6 °F 51.8 °F 94% 29.53 in 1.8 mi NE 10.4 mph - 0.01 in Rain Light Rain
9:23 AM 53.6 °F 51.8 °F 94% 29.52 in 2.0 mi ENE 9.2 mph - 0.01 in Rain Light Rain
9:45 AM 53.6 °F 53.6 °F 100% 29.52 in 3.0 mi ENE 6.9 mph - 0.01 in Rain Light Rain
9:53 AM 53.1 °F 53.1 °F 100% 29.53 in 3.0 mi East 9.2 mph - 0.02 in Rain Light Rain
10:00 AM 53.6 °F 53.6 °F 100% 29.52 in 1.8 mi East 9.2 mph - 0.00 in Rain Light Rain
10:11 AM 53.6 °F 53.6 °F 100% 29.52 in 3.0 mi ENE 11.5 mph - N/A Rain Light Rain
10:25 AM 53.6 °F 53.6 °F 100% 29.51 in 6.0 mi ENE 10.4 mph - 0.01 in Rain Light Rain
10:53 AM 54.0 °F 53.1 °F 97% 29.52 in 10.0 mi ENE 9.2 mph - 0.01 in   Overcast
11:00 AM 55.4 °F 53.6 °F 94% 29.50 in 8.0 mi ENE 11.5 mph - 0.00 in Rain Light Rain
11:38 AM 55.4 °F 53.6 °F 94% 29.50 in 2.5 mi East 9.2 mph - 0.03 in Rain Light Rain
11:42 AM 55.4 °F 53.6 °F 94% 29.50 in 3.0 mi ESE 8.1 mph - 0.03 in Rain Light Rain
11:53 AM 57.0 °F 55.0 °F 93% 29.52 in 10.0 mi SSE 10.4 mph - 0.03 in Rain Light Rain
12:03 PM 57.2 °F 55.4 °F 94% 29.51 in 10.0 mi SSE 13.8 mph - 0.00 in   Overcast
12:14 PM 57.2 °F 55.4 °F 94% 29.51 in 10.0 mi SSE 13.8 mph - 0.00 in   Overcast
12:30 PM 59.0 °F 55.4 °F 88% 29.52 in 10.0 mi South 12.7 mph - 0.00 in   Overcast
12:53 PM 60.8 °F 57.2 °F 88% 29.52 in 10.0 mi South 13.8 mph - N/A   Overcast
1:53 PM 60.1 °F 55.9 °F 86% 29.55 in 10.0 mi SSW 16.1 mph - N/A   Mostly Cloudy
2:27 PM 57.2 °F 53.6 °F 88% 29.54 in 8.0 mi SSW 20.7 mph 28.8 mph 0.01 in Rain Light Rain
2:34 PM 59.0 °F 53.6 °F 82% 29.54 in 10.0 mi SSW 18.4 mph - 0.01 in Rain Light Rain
2:53 PM 59.0 °F 54.0 °F 83% 29.56 in 10.0 mi SW 18.4 mph 27.6 mph 0.01 in   Overcast
3:53 PM 57.0 °F 53.1 °F 87% 29.58 in 2.5 mi SSW 25.3 mph 33.4 mph 0.02 in Rain Light Rain
3:59 PM 57.2 °F 53.6 °F 88% 29.57 in 4.0 mi SSW 18.4 mph 33.4 mph 0.00 in Rain Light Rain
4:53 PM 57.0 °F 53.1 °F 87% 29.60 in 3.0 mi SSW 18.4 mph 32.2 mph 0.04 in Rain Light Rain
5:53 PM 55.9 °F 53.1 °F 90% 29.60 in 10.0 mi South 16.1 mph - 0.02 in   Mostly Cloudy
6:53 PM 55.9 °F 53.1 °F 90% 29.61 in 10.0 mi South 17.3 mph - N/A   Mostly Cloudy
7:53 PM 55.9 °F 53.1 °F 90% 29.59 in 10.0 mi South 12.7 mph - N/A   Mostly Cloudy
8:53 PM 55.9 °F 53.1 °F 90% 29.59 in 6.0 mi SSE 13.8 mph - 0.01 in Rain Light Rain
9:53 PM 55.9 °F 53.1 °F 90% 29.59 in 10.0 mi SSE 16.1 mph - 0.00 in   Overcast
10:53 PM 55.9 °F 54.0 °F 93% 29.57 in 10.0 mi SSE 17.3 mph - 0.01 in Rain Light Rain
11:00 PM 57.2 °F 53.6 °F 88% 29.56 in 10.0 mi SSE 16.1 mph 24.2 mph 0.00 in Rain Light Rain
11:53 PM 57.9 °F 55.0 °F 90% 29.56 in 10.0 mi South 16.1 mph 23.0 mph 0.04 in   Overcast